Regional Weather Roundup
Issued by NWS

Home | Current Version | Previous Version | Graphics & Text | Print | Product List | Glossary On
Versions: 1 2 3 4 5 6 7 8 9 10 11 12 13 14 15 16 17 18 19 20 21 22 23 24 25 26 27 28 29 30 31 32 33 34 35 36 37 38 39 40 41 42 43 44 45 46 47 48 49 50
000
ASUS43 KFSD 261710
RWRSD

WEATHER ROUNDUP FOR SOUTH DAKOTA
NATIONAL WEATHER SERVICE SIOUX FALLS SD
1100 AM CST WED NOV 26 2014

NOTE: "FAIR" INDICATES FEW OR NO CLOUDS BELOW 12,000 FEET WITH NO
SIGNIFICANT WEATHER AND/OR OBSTRUCTIONS TO VISIBILITY.


SDZ001>005-009-010-012>017-261800-
NORTHWEST AND NORTH CENTRAL SOUTH DAKOTA

CITY           SKY/WX    TMP DP  RH WIND       PRES   REMARKS
BUFFALO          N/A     28  22  78 W9        30.16R WCI  19
FAITH            N/A     23  18  81 S7        30.26S WCI  15
MOBRIDGE       CLOUDY    12   6  77 N5        30.32R WCI   4
$$

SDZ012>016-024>037-041>051-057-063-072>074-261800-
SOUTHWEST AND SOUTH CENTRAL SOUTH DAKOTA

CITY           SKY/WX    TMP DP  RH WIND       PRES   REMARKS
RAPID CTY ARPT LGT SNOW  26  22  84 S8        30.24S WCI  18
PIERRE         CLOUDY    19  12  74 NW7       30.33R WCI  10
CUSTER         CLOUDY    22  17  81 S7        30.12R WCI  13
ELLSWORTH AFB  LGT SNOW  27  23  86 S7        30.23  WCI  19
PHILIP         LGT SNOW  26  19  74 NE5       30.31R WCI  20
PINE RIDGE     LGT SNOW  26  21  81 SW3       30.27R
SPEARFISH      FAIR      28  25  86 NW8       30.21S WCI  20
WINNER         CLOUDY    22  12  65 N10       30.32R WCI  11
$$

SDZ004>011-016>023-039-040-261800-
NORTHEAST SOUTH DAKOTA

CITY           SKY/WX    TMP DP  RH WIND       PRES   REMARKS
ABERDEEN       CLOUDY     8  -3  61 N17       30.37R WCI -10
WATERTOWN      MOSUNNY   10   4  76 N14       30.24R WCI  -6
SISSETON         N/A      8   4  83 N21       30.32R WCI -12
$$

SDZ017-020-022-023-036>040-048>070-261800-
SOUTHEAST SOUTH DAKOTA

CITY           SKY/WX    TMP DP  RH WIND       PRES   REMARKS
SIOUX FALLS    MOSUNNY   22  15  75 N23       30.19R WCI   6
HURON          SUNNY     11   4  73 N21       30.33R WCI  -8
CHAMBERLAIN    PTSUNNY   18  10  72 N8        30.32S WCI   7
MITCHELL       MIX PCPN  14   8  77 N18       30.32R WCI  -3
YANKTON        CLOUDY    19  12  73 NW24G30   30.25R WCI   2
$$

ABBREVIATIONS USED IN REMARKS
   TC - TEMPERATURE IN CELSIUS
  WCI - WIND CHILL INDEX
   HX - HEAT INDEX
  VSB - VISIBILITY



USA.gov is the U.S. government's official web portal to all federal, state and local government web resources and services.